Regional Weather Roundup
Issued by NWS Cleveland, OH

Home | Current Version | Previous Version | Graphics & Text | Print | Product List | Glossary On
Versions: 1 2 3 4 5 6 7 8 9 10 11 12 13 14 15 16 17 18 19 20 21 22 23 24 25 26 27 28 29 30 31 32 33 34 35 36 37 38 39 40 41 42 43 44 45 46 47 48 49 50
000
ASUS41 KCLE 131502
RWRCLE
OHIO REGIONAL WEATHER ROUNDUP
NATIONAL WEATHER SERVICE CLEVELAND, OH
1100 AM EDT SUN JUL 13 2014

NOTE: "FAIR" INDICATES FEW OR NO CLOUDS BELOW 12,000 FEET WITH NO
SIGNIFICANT WEATHER AND/OR OBSTRUCTIONS TO VISIBILITY.

OHZ001>008-015>018-024>027-034-035-043-044-131600-
   NORTHWEST OHIO

CITY           SKY/WX    TMP DP  RH WIND       PRES   REMARKS
DEFIANCE       CLOUDY    77  68  73 VRB6      29.91R
FINDLAY        PTSUNNY   80  70  71 W18G24    29.91S
TOLEDO EXPRESS CLOUDY    76  68  76 W13       29.89R
TOLEDO EXEC    PTSUNNY   78  68  71 W17       29.89R
LIMA           PTSUNNY   78  69  73 W17G24    29.95R
$$

OHZ009>014-019>023-028>033-038-089-131600-
   NORTHEAST OHIO

CITY           SKY/WX    TMP DP  RH WIND       PRES   REMARKS
CLE-HOPKINS    CLOUDY    78  71  79 SW15G22   29.89S
CLE-LAKEFRONT  CLOUDY    79  70  74 SW18G26   29.85S
CUY CO. ARPT   LGT RAIN  77  73  88 SW13      29.88F
LORAIN-ELYRIA  CLOUDY    82  71  69 W15       29.88F
ASHTABULA      CLOUDY    74  69  85 SW13      29.88F
AKRON-CANTON   CLOUDY    78  68  71 SW14      29.93F
WOOSTER        CLOUDY    80  71  74 SW10      29.94F
MANSFIELD      CLOUDY    80  70  71 SW13G25   29.94F
YOUNGSTOWN     CLOUDY    76  69  79 SW7       29.92F
$$

OHZ042-051>053-060>062-070>072-077>081-131600-
  SOUTHWEST OHIO

CITY           SKY/WX    TMP DP  RH WIND       PRES   REMARKS
CINC-COVINGTON CLOUDY    81  71  71 SW13      29.99F
CINC-LUNKEN    CLOUDY    86  74  67 SW9       29.97F HX  94
HAMILTON       CLOUDY    82  73  74 SW7G17    29.97F
DAYTON         CLOUDY    80  72  76 W17       29.97F
WRIGHT-PAT AFB PTSUNNY   82  73  73 SW15      29.96F
DAYTON GENERAL CLOUDY    81  72  74 SW9       29.97F
WILMINGTON     PTSUNNY   81  70  69 SW16      29.98F
$$

OHZ036-037-039>041-045>050-054>059-063>069-073>076-082>088-131600-
  CENTRAL AND SOUTHEAST OHIO

CITY           SKY/WX    TMP DP  RH WIND       PRES   REMARKS
COLUMBUS       CLOUDY    83  69  62 SW15G21   29.96F
OSU AIRPORT    CLOUDY    81  71  71 SW12      29.96F
BOLTON FIELD   PTSUNNY   81  72  74 SW10G20   29.98S
RICKENBACK AFB CLOUDY    84  66  54 SW13G20   29.97S
NEWARK         PTSUNNY   82  71  69 SW13      29.96F
MARION         CLOUDY    79  70  74 W13G23    29.94F
LANCASTER      CLOUDY    81  70  69 SW9       29.98F
ZANESVILLE     PTSUNNY   81  69  67 SW10      29.98F
NEW PHILLY     PTSUNNY   79  70  74 SW7G20    29.96F
$$



USA.gov is the U.S. government's official web portal to all federal, state and local government web resources and services.